SAS68G ESSA-ESGG

Flight info

Callsign SAS68G
Flight time 0h 48m
Altitude 30000
Route ARS N623 BEDLA N866 LAPSI DCT MOXAM
Aircraft A320/M-SDE3FGHIRWY/LB1

Departure

Time 2026-05-05 14:47
Airport Stockholm-Arlanda Airport (ESSA)

Arrival

Time 2026-05-05 15:36
Airport Göteborg Landvetter Airport (ESGG)
Time Latitude Longitude Altitude Speed Heading
2026-05-05 14:15 59.65330 17.93138 110 ft 0 kts 250°
2026-05-05 14:36 59.65331 17.93140 112 ft 1 kts 250°
2026-05-05 14:37 59.65336 17.93168 112 ft 3 kts 249°
2026-05-05 14:37 59.65343 17.93205 110 ft 3 kts 251°
2026-05-05 14:37 59.65349 17.93243 111 ft 3 kts 261°
2026-05-05 14:37 59.65349 17.93278 112 ft 3 kts 302°
2026-05-05 14:38 59.65344 17.93291 112 ft 0 kts 340°
2026-05-05 14:40 59.65353 17.93285 111 ft 3 kts 340°
2026-05-05 14:41 59.65380 17.93266 112 ft 5 kts 341°
2026-05-05 14:41 59.65415 17.93246 112 ft 7 kts 344°
2026-05-05 14:41 59.65466 17.93213 110 ft 9 kts 338°
2026-05-05 14:41 59.65507 17.93114 110 ft 11 kts 275°
2026-05-05 14:42 59.65485 17.92954 111 ft 13 kts 251°
2026-05-05 14:42 59.65450 17.92771 111 ft 15 kts 246°
2026-05-05 14:42 59.65384 17.92580 111 ft 18 kts 226°
2026-05-05 14:42 59.65276 17.92426 111 ft 20 kts 204°
2026-05-05 14:43 59.65135 17.92359 112 ft 22 kts 190°
2026-05-05 14:43 59.64978 17.92300 112 ft 24 kts 191°
2026-05-05 14:43 59.64807 17.92240 112 ft 26 kts 190°
2026-05-05 14:43 59.64632 17.92175 112 ft 18 kts 190°
2026-05-05 14:44 59.64530 17.92140 112 ft 16 kts 190°
2026-05-05 14:44 59.64421 17.92101 114 ft 17 kts 190°
2026-05-05 14:44 59.64337 17.92029 113 ft 12 kts 244°
2026-05-05 14:44 59.64292 17.91885 113 ft 14 kts 193°
2026-05-05 14:45 59.64189 17.91850 114 ft 16 kts 190°
2026-05-05 14:45 59.64074 17.91809 114 ft 18 kts 190°
2026-05-05 14:45 59.63955 17.91767 111 ft 16 kts 190°
2026-05-05 14:45 59.63835 17.91698 108 ft 19 kts 217°
2026-05-05 14:46 59.63747 17.91552 107 ft 15 kts 221°
2026-05-05 14:46 59.63736 17.91390 109 ft 9 kts 301°
2026-05-05 14:46 59.63815 17.91356 109 ft 21 kts
2026-05-05 14:46 59.64193 17.91491 107 ft 87 kts 10°
2026-05-05 14:47 59.64965 17.91771 105 ft 137 kts 10°
2026-05-05 14:47 59.66018 17.92194 249 ft 162 kts
2026-05-05 14:47 59.67119 17.92601 856 ft 161 kts
2026-05-05 14:47 59.68227 17.92804 1469 ft 160 kts 345°
2026-05-05 14:48 59.69218 17.91732 1738 ft 173 kts 308°
2026-05-05 14:48 59.69645 17.89471 2113 ft 187 kts 270°
2026-05-05 14:48 59.69484 17.86879 2696 ft 191 kts 263°
2026-05-05 14:48 59.69283 17.84264 3323 ft 194 kts 263°
2026-05-05 14:49 59.69079 17.81611 3975 ft 196 kts 263°
2026-05-05 14:49 59.68877 17.78948 4689 ft 196 kts 263°
2026-05-05 14:49 59.68561 17.76280 4965 ft 201 kts 255°
2026-05-05 14:49 59.68144 17.73636 5003 ft 201 kts 254°
2026-05-05 14:50 59.67717 17.71001 5056 ft 203 kts 254°
2026-05-05 14:50 59.67271 17.68241 5359 ft 222 kts 253°
2026-05-05 14:50 59.66630 17.65294 5712 ft 246 kts 239°
2026-05-05 14:50 59.65466 17.62686 6370 ft 258 kts 226°
2026-05-05 14:51 59.64161 17.60222 7200 ft 261 kts 228°
2026-05-05 14:51 59.63140 17.57272 7989 ft 261 kts 246°
2026-05-05 14:51 59.62359 17.54005 8816 ft 264 kts 246°
2026-05-05 14:51 59.61584 17.50698 9626 ft 267 kts 246°
2026-05-05 14:52 59.60799 17.47328 10224 ft 277 kts 246°
2026-05-05 14:52 59.59970 17.43782 10425 ft 298 kts 246°
2026-05-05 14:52 59.59083 17.40006 10956 ft 306 kts 246°
2026-05-05 14:52 59.58192 17.36222 11825 ft 302 kts 247°
2026-05-05 14:53 59.57308 17.32470 12678 ft 301 kts 248°
2026-05-05 14:53 59.56423 17.28743 13519 ft 299 kts 248°
2026-05-05 14:53 59.55539 17.25036 14246 ft 298 kts 247°
2026-05-05 14:53 59.54658 17.21352 14960 ft 297 kts 247°
2026-05-05 14:54 59.53782 17.17679 15661 ft 296 kts 247°
2026-05-05 14:54 59.52908 17.14009 16361 ft 295 kts 247°
2026-05-05 14:54 59.52037 17.10365 17117 ft 294 kts 247°
2026-05-05 14:54 59.51166 17.06737 17857 ft 293 kts 246°
2026-05-05 14:55 59.50298 17.03119 18532 ft 292 kts 246°
2026-05-05 14:55 59.49428 16.99494 19105 ft 294 kts 246°
2026-05-05 14:55 59.48552 16.95846 19670 ft 296 kts 246°
2026-05-05 14:55 59.47667 16.92167 20199 ft 299 kts 246°
2026-05-05 14:56 59.46768 16.88448 20718 ft 302 kts 246°
2026-05-05 14:56 59.45861 16.84701 21224 ft 305 kts 246°
2026-05-05 14:56 59.44945 16.80923 21723 ft 308 kts 246°
2026-05-05 14:56 59.44018 16.77098 22226 ft 311 kts 246°
2026-05-05 14:57 59.43083 16.73246 22726 ft 313 kts 247°
2026-05-05 14:57 59.42151 16.69419 23217 ft 316 kts 246°
2026-05-05 14:57 59.41195 16.65506 23666 ft 319 kts 246°
2026-05-05 14:57 59.40229 16.61560 24071 ft 321 kts 246°
2026-05-05 14:58 59.39255 16.57587 24381 ft 325 kts 246°
2026-05-05 14:58 59.38268 16.53570 24751 ft 328 kts 246°
2026-05-05 14:58 59.37272 16.49525 25146 ft 330 kts 246°
2026-05-05 14:58 59.36269 16.45456 25537 ft 332 kts 246°
2026-05-05 14:59 59.35260 16.41362 25929 ft 334 kts 246°
2026-05-05 14:59 59.34243 16.37250 26307 ft 336 kts 246°
2026-05-05 14:59 59.33217 16.33116 26676 ft 338 kts 246°
2026-05-05 14:59 59.32186 16.28963 27102 ft 340 kts 246°
2026-05-05 15:00 59.31148 16.24784 27486 ft 341 kts 246°
2026-05-05 15:00 59.30458 16.22012 27729 ft 342 kts 246°
2026-05-05 15:00 59.29062 16.16399 28215 ft 344 kts 246°
2026-05-05 15:00 59.28008 16.12178 28558 ft 346 kts 246°
2026-05-05 15:01 59.26945 16.07934 28911 ft 348 kts 246°
2026-05-05 15:01 59.25874 16.03660 29251 ft 350 kts 246°
2026-05-05 15:01 59.24811 15.99429 29583 ft 352 kts 246°
2026-05-05 15:01 59.23729 15.95141 29846 ft 351 kts 246°
2026-05-05 15:02 59.22663 15.90948 29870 ft 338 kts 246°
2026-05-05 15:02 59.21630 15.86878 29870 ft 333 kts 246°
2026-05-05 15:02 59.19581 15.78787 29869 ft 334 kts 246°
2026-05-05 15:03 59.17511 15.70649 29874 ft 335 kts 246°
2026-05-05 15:03 59.15434 15.62510 29876 ft 335 kts 246°
2026-05-05 15:04 59.13347 15.54386 29889 ft 335 kts 246°
2026-05-05 15:04 59.11255 15.46267 29916 ft 335 kts 246°
2026-05-05 15:05 59.08121 15.34129 29912 ft 334 kts 246°
2026-05-05 15:06 59.06032 15.26058 29903 ft 334 kts 246°
2026-05-05 15:06 59.03948 15.18062 29908 ft 334 kts 246°
2026-05-05 15:07 59.01846 15.10025 29903 ft 334 kts 246°
2026-05-05 15:07 58.99738 15.01975 29874 ft 337 kts 246°
2026-05-05 15:08 58.97949 14.95173 29881 ft 338 kts 245°
2026-05-05 15:08 58.95816 14.87116 29896 ft 338 kts 245°
2026-05-05 15:09 58.93668 14.79015 29897 ft 338 kts 245°
2026-05-05 15:09 58.91510 14.70914 29941 ft 338 kts 245°
2026-05-05 15:10 58.89348 14.62847 29935 ft 337 kts 245°
2026-05-05 15:10 58.88276 14.58845 29716 ft 331 kts 245°
2026-05-05 15:10 58.87228 14.54941 29440 ft 323 kts 246°
2026-05-05 15:10 58.86202 14.51129 29142 ft 316 kts 245°
2026-05-05 15:11 58.85197 14.47403 28856 ft 310 kts 246°
2026-05-05 15:11 58.84202 14.43717 28578 ft 308 kts 246°
2026-05-05 15:11 58.83227 14.40106 28300 ft 306 kts 246°
2026-05-05 15:11 58.82234 14.36429 28023 ft 304 kts 245°
2026-05-05 15:12 58.81269 14.32866 27755 ft 303 kts 245°
2026-05-05 15:12 58.80295 14.29275 27427 ft 302 kts 245°
2026-05-05 15:12 58.79318 14.25680 27165 ft 302 kts 245°
2026-05-05 15:12 58.78343 14.22099 26899 ft 301 kts 245°
2026-05-05 15:13 58.77371 14.18527 26636 ft 300 kts 245°
2026-05-05 15:13 58.76403 14.14973 26378 ft 299 kts 245°
2026-05-05 15:13 58.75439 14.11440 26117 ft 298 kts 245°
2026-05-05 15:13 58.74476 14.07913 25869 ft 296 kts 245°
2026-05-05 15:14 58.73515 14.04410 25633 ft 295 kts 245°
2026-05-05 15:14 58.72555 14.00919 25376 ft 294 kts 245°
2026-05-05 15:14 58.71599 13.97451 25128 ft 293 kts 245°
2026-05-05 15:14 58.70648 13.93994 24897 ft 292 kts 245°
2026-05-05 15:15 58.69699 13.90547 24653 ft 291 kts 245°
2026-05-05 15:15 58.68753 13.87119 24408 ft 290 kts 245°
2026-05-05 15:15 58.67810 13.83712 24211 ft 285 kts 245°
2026-05-05 15:15 58.66885 13.80390 23954 ft 280 kts 245°
2026-05-05 15:16 58.65973 13.77116 23641 ft 276 kts 245°
2026-05-05 15:16 58.65072 13.73881 23297 ft 273 kts 245°
2026-05-05 15:16 58.64182 13.70688 22966 ft 269 kts 245°
2026-05-05 15:16 58.63309 13.67553 22654 ft 264 kts 245°
2026-05-05 15:17 58.62459 13.64508 22353 ft 260 kts 245°
2026-05-05 15:17 58.61610 13.61471 22051 ft 256 kts 245°
2026-05-05 15:17 58.60773 13.58485 21756 ft 252 kts 245°
2026-05-05 15:17 58.59943 13.55528 21430 ft 251 kts 245°
2026-05-05 15:18 58.59110 13.52569 21157 ft 252 kts 245°
2026-05-05 15:18 58.58280 13.49618 20873 ft 251 kts 245°
2026-05-05 15:18 58.57454 13.46680 20579 ft 250 kts 245°
2026-05-05 15:18 58.56632 13.43755 20289 ft 249 kts 245°
2026-05-05 15:19 58.55811 13.40844 19999 ft 248 kts 245°
2026-05-05 15:19 58.54994 13.37950 19707 ft 247 kts 245°
2026-05-05 15:19 58.54180 13.35068 19409 ft 246 kts 245°
2026-05-05 15:19 58.53279 13.32286 19125 ft 248 kts 237°
2026-05-05 15:20 58.52051 13.29909 18751 ft 255 kts 225°
2026-05-05 15:20 58.50595 13.27922 18392 ft 258 kts 223°
2026-05-05 15:20 58.49125 13.25944 17990 ft 259 kts 223°
2026-05-05 15:20 58.47657 13.23967 17619 ft 258 kts 224°
2026-05-05 15:21 58.46187 13.21986 17246 ft 258 kts 224°
2026-05-05 15:21 58.44728 13.20016 16881 ft 257 kts 224°
2026-05-05 15:21 58.43271 13.18052 16520 ft 256 kts 224°
2026-05-05 15:21 58.41815 13.16091 16168 ft 256 kts 224°
2026-05-05 15:22 58.40378 13.14156 15810 ft 256 kts 224°
2026-05-05 15:22 58.38920 13.12203 15451 ft 256 kts 224°
2026-05-05 15:22 58.37467 13.10257 15096 ft 256 kts 224°
2026-05-05 15:22 58.36011 13.08309 14716 ft 256 kts 224°
2026-05-05 15:23 58.34558 13.06368 14379 ft 255 kts 224°
2026-05-05 15:23 58.33107 13.04426 14044 ft 255 kts 224°
2026-05-05 15:23 58.31658 13.02483 13692 ft 255 kts 224°
2026-05-05 15:23 58.30204 13.00539 13311 ft 255 kts 224°
2026-05-05 15:24 58.28754 12.98608 12955 ft 254 kts 224°
2026-05-05 15:24 58.27304 12.96685 12615 ft 253 kts 224°
2026-05-05 15:24 58.25862 12.94771 12274 ft 253 kts 224°
2026-05-05 15:24 58.24425 12.92859 11933 ft 252 kts 223°
2026-05-05 15:25 58.22990 12.90952 11602 ft 252 kts 223°
2026-05-05 15:25 58.21558 12.89050 11257 ft 252 kts 223°
2026-05-05 15:25 58.20123 12.87142 10918 ft 252 kts 223°
2026-05-05 15:25 58.18689 12.85241 10580 ft 252 kts 223°
2026-05-05 15:26 58.17251 12.83335 10236 ft 252 kts 223°
2026-05-05 15:26 58.15811 12.81428 9907 ft 253 kts 222°
2026-05-05 15:26 58.14363 12.79518 9541 ft 254 kts 222°
2026-05-05 15:26 58.12915 12.77612 9194 ft 253 kts 221°
2026-05-05 15:27 58.11471 12.75716 8873 ft 252 kts 221°
2026-05-05 15:27 58.10037 12.73820 8544 ft 251 kts 221°
2026-05-05 15:27 58.08620 12.71891 8225 ft 251 kts 222°
2026-05-05 15:27 58.07210 12.69954 7904 ft 251 kts 222°
2026-05-05 15:28 58.05800 12.68015 7581 ft 251 kts 221°
2026-05-05 15:28 58.04391 12.66080 7264 ft 251 kts 221°
2026-05-05 15:28 58.02977 12.64136 6941 ft 252 kts 221°
2026-05-05 15:28 58.01562 12.62194 6615 ft 252 kts 221°
2026-05-05 15:29 58.00142 12.60255 6285 ft 252 kts 220°
2026-05-05 15:29 57.98735 12.58342 5942 ft 252 kts 220°
2026-05-05 15:29 57.97288 12.56473 5617 ft 253 kts 212°
2026-05-05 15:29 57.95707 12.54993 5301 ft 254 kts 210°
2026-05-05 15:30 57.94135 12.53546 5106 ft 251 kts 210°
2026-05-05 15:30 57.92559 12.52092 4723 ft 254 kts 209°
2026-05-05 15:30 57.90968 12.50624 4376 ft 256 kts 210°
2026-05-05 15:30 57.89367 12.49148 4104 ft 254 kts 210°
2026-05-05 15:31 57.87814 12.47720 4035 ft 244 kts 209°
2026-05-05 15:31 57.86324 12.46352 3934 ft 233 kts 210°
2026-05-05 15:31 57.84891 12.45037 3844 ft 227 kts 210°
2026-05-05 15:31 57.83485 12.43742 3754 ft 224 kts 209°
2026-05-05 15:32 57.82105 12.42473 3658 ft 218 kts 210°
2026-05-05 15:32 57.80761 12.41240 3529 ft 212 kts 210°
2026-05-05 15:32 57.79435 12.40021 3164 ft 213 kts 210°
2026-05-05 15:32 57.78121 12.38814 2856 ft 210 kts 209°
2026-05-05 15:33 57.76836 12.37638 2573 ft 198 kts 211°
2026-05-05 15:33 57.75648 12.36547 2344 ft 184 kts 209°
2026-05-05 15:33 57.74527 12.35516 2094 ft 174 kts 210°
2026-05-05 15:33 57.73484 12.34562 1868 ft 160 kts 210°
2026-05-05 15:34 57.72512 12.33672 1682 ft 152 kts 209°
2026-05-05 15:34 57.71580 12.32819 1459 ft 147 kts 209°
2026-05-05 15:34 57.70667 12.31977 1241 ft 144 kts 211°
2026-05-05 15:34 57.69774 12.31172 1030 ft 140 kts 213°
2026-05-05 15:35 57.68922 12.30392 829 ft 138 kts 208°
2026-05-05 15:35 57.68067 12.29605 666 ft 136 kts 212°
2026-05-05 15:35 57.67236 12.28837 517 ft 123 kts 209°
2026-05-05 15:35 57.66616 12.28277 512 ft 65 kts 206°
2026-05-05 15:36 57.66374 12.28057 511 ft 35 kts 205°
2026-05-05 15:36 57.66195 12.27921 509 ft 20 kts 178°
2026-05-05 15:36 57.66123 12.28018 508 ft 10 kts 115°
2026-05-05 15:36 57.66116 12.28045 509 ft 0 kts 115°
2026-05-05 15:37 57.66115 12.28050 509 ft 1 kts 115°
2026-05-05 15:37 57.66108 12.28077 509 ft 3 kts 115°
2026-05-05 15:37 57.66104 12.28130 509 ft 5 kts 85°
2026-05-05 15:37 57.66125 12.28186 509 ft 6 kts 33°
2026-05-05 15:38 57.66168 12.28220 510 ft 7 kts 26°
2026-05-05 15:38 57.66217 12.28266 510 ft 9 kts 26°
2026-05-05 15:38 57.66275 12.28319 511 ft 10 kts 26°
2026-05-05 15:38 57.66342 12.28380 511 ft 11 kts 26°
2026-05-05 15:39 57.66419 12.28449 511 ft 13 kts 26°
2026-05-05 15:39 57.66529 12.28548 512 ft 20 kts 26°
2026-05-05 15:39 57.66656 12.28665 512 ft 21 kts 26°
2026-05-05 15:39 57.66778 12.28776 513 ft 11 kts 26°
2026-05-05 15:40 57.66843 12.28835 513 ft 10 kts 26°
2026-05-05 15:40 57.66905 12.28891 513 ft 10 kts 26°
2026-05-05 15:40 57.66974 12.28953 514 ft 12 kts 26°
2026-05-05 15:40 57.67041 12.29046 514 ft 12 kts 70°
2026-05-05 15:41 57.67016 12.29180 516 ft 10 kts 118°
2026-05-05 15:41 57.66991 12.29304 516 ft 10 kts 90°
2026-05-05 15:41 57.67031 12.29401 516 ft 9 kts 54°
2026-05-05 15:41 57.67011 12.29512 516 ft 8 kts 117°
2026-05-05 15:42 57.67006 12.29532 516 ft 1 kts 117°
2026-05-05 15:42 57.67005 12.29534 516 ft 0 kts 117°